Location: DARK SKY Beskydy - Park tmavé oblohy, www.darkskybeskydy.cz
(49.4926°N, 18.5016°E)
Time: 11:21:13
(UTC+02:00)

Vanguard 1 - Pass Details

Date: 01 March 2024
Orbit: 653 x 3825 km, 34.2° (Epoch: 12 April)

Event Time Altitude Azimuth Distance (km) Brightness Sun altitude
Rises 19:48:39 0° 246° (WSW) 5,138 14.5 -23.2°
Reaches altitude 10° 19:51:37 10° 240° (WSW) 4,492 13.9 -23.6°
Maximum altitude 20:04:15 47° 172° (S) 3,577 12.6 -25.6°
Enters shadow 20:12:31 34° 128° (SE) 4,664 12.9 -26.8°
Drops below altitude 10° 20:24:09 10° 108° (ESE) 6,847 - -28.6°
Sets 20:30:04 0° 104° (ESE) 7,962 - -29.4°
